N903LE KPVU-KSJC

Flight info

Callsign N903LE
Flight time N/A
Altitude 18000
Route DITTI1 DAHLI DTA MVA MOD BORED
Aircraft C414/L-SBDFGRY/S

Departure

Time 2026-04-19 04:24
Airport Provo Municipal Airport (KPVU)

Arrival

Time N/A
Airport Norman Y. Mineta San Jose International Airport (KSJC)
Time Latitude Longitude Altitude Speed Heading
2026-04-19 04:10 40.21820 -111.71878 4495 ft 0 kts 65°
2026-04-19 04:20 40.21800 -111.71858 4590 ft 7 kts 212°
2026-04-19 04:21 40.21769 -111.71895 4595 ft 7 kts 192°
2026-04-19 04:21 40.21718 -111.71874 4596 ft 11 kts 146°
2026-04-19 04:21 40.21640 -111.71803 4595 ft 16 kts 146°
2026-04-19 04:21 40.21553 -111.71729 4599 ft 14 kts 146°
2026-04-19 04:22 40.21463 -111.71646 4595 ft 16 kts 146°
2026-04-19 04:22 40.21377 -111.71570 4598 ft 13 kts 146°
2026-04-19 04:22 40.21296 -111.71499 4595 ft 14 kts 146°
2026-04-19 04:22 40.21223 -111.71436 4594 ft 11 kts 146°
2026-04-19 04:23 40.21159 -111.71390 4593 ft 10 kts 176°
2026-04-19 04:23 40.21111 -111.71443 4592 ft 9 kts 234°
2026-04-19 04:23 40.21083 -111.71519 4591 ft 9 kts 281°
2026-04-19 04:23 40.21235 -111.71666 4592 ft 56 kts 326°
2026-04-19 04:24 40.21708 -111.72079 4590 ft 105 kts 326°
2026-04-19 04:24 40.22379 -111.72668 4797 ft 122 kts 326°
2026-04-19 04:24 40.23132 -111.73266 5050 ft 135 kts 316°
2026-04-19 04:24 40.23405 -111.74370 5419 ft 130 kts 261°
2026-04-19 04:25 40.23035 -111.75424 5745 ft 129 kts 226°
2026-04-19 04:25 40.22461 -111.76323 6098 ft 129 kts 231°
2026-04-19 04:25 40.21907 -111.77251 6423 ft 130 kts 230°
2026-04-19 04:25 40.21353 -111.78176 6696 ft 132 kts 231°
2026-04-19 04:26 40.20776 -111.79145 6976 ft 134 kts 232°
2026-04-19 04:26 40.20215 -111.80090 7394 ft 132 kts 230°
2026-04-19 04:26 40.19651 -111.81041 7722 ft 132 kts 230°
2026-04-19 04:26 40.19088 -111.81993 8067 ft 132 kts 230°
2026-04-19 04:27 40.18523 -111.82947 8402 ft 133 kts 229°
2026-04-19 04:27 40.17955 -111.83905 8738 ft 134 kts 229°
2026-04-19 04:27 40.17386 -111.84865 9086 ft 134 kts 229°
2026-04-19 04:27 40.16817 -111.85827 9441 ft 134 kts 228°
2026-04-19 04:28 40.16246 -111.86790 9786 ft 134 kts 228°
2026-04-19 04:28 40.15673 -111.87755 10136 ft 135 kts 227°
2026-04-19 04:28 40.15100 -111.88724 10453 ft 135 kts 228°
2026-04-19 04:28 40.14712 -111.89377 10672 ft 135 kts 229°
2026-04-19 04:29 40.14138 -111.90345 11000 ft 135 kts 229°
2026-04-19 04:29 40.13500 -111.91220 11324 ft 132 kts 208°
2026-04-19 04:29 40.12629 -111.91566 11640 ft 132 kts 191°
2026-04-19 04:29 40.11728 -111.91826 11966 ft 133 kts 193°
2026-04-19 04:30 40.10823 -111.92082 12296 ft 134 kts 193°
2026-04-19 04:30 40.09912 -111.92337 12633 ft 134 kts 193°
2026-04-19 04:30 40.08996 -111.92592 12967 ft 135 kts 194°
2026-04-19 04:30 40.08075 -111.92848 13300 ft 136 kts 194°
2026-04-19 04:31 40.07149 -111.93107 13647 ft 136 kts 194°
2026-04-19 04:31 40.06217 -111.93367 13969 ft 138 kts 195°
2026-04-19 04:31 40.05274 -111.93630 14270 ft 139 kts 195°
2026-04-19 04:31 40.04325 -111.93895 14572 ft 140 kts 195°
2026-04-19 04:32 40.03370 -111.94161 14877 ft 141 kts 196°
2026-04-19 04:32 40.02422 -111.94425 15179 ft 141 kts 196°
2026-04-19 04:32 40.01453 -111.94676 15487 ft 143 kts 189°
2026-04-19 04:32 40.00456 -111.94428 15788 ft 150 kts 167°
2026-04-19 04:33 39.99458 -111.94030 16107 ft 150 kts 169°
2026-04-19 04:33 39.98451 -111.93638 16403 ft 152 kts 169°
2026-04-19 04:33 39.97437 -111.93236 16723 ft 153 kts 169°
2026-04-19 04:33 39.96415 -111.92830 17038 ft 154 kts 169°
2026-04-19 04:34 39.95385 -111.92421 17351 ft 155 kts 169°
2026-04-19 04:34 39.94346 -111.92009 17669 ft 157 kts 169°
2026-04-19 04:34 39.93300 -111.91595 17992 ft 158 kts 170°
2026-04-19 04:34 39.92233 -111.91175 18197 ft 167 kts 170°
2026-04-19 04:35 39.91059 -111.90718 18212 ft 185 kts 169°
2026-04-19 04:35 39.89776 -111.90213 18211 ft 199 kts 168°
2026-04-19 04:35 39.88406 -111.89859 18211 ft 202 kts 186°
2026-04-19 04:35 39.86999 -111.90071 18208 ft 207 kts 193°
2026-04-19 04:36 39.85556 -111.90315 18205 ft 211 kts 192°
2026-04-19 04:36 39.84084 -111.90560 18205 ft 215 kts 192°
2026-04-19 04:36 39.82641 -111.90799 18618 ft 197 kts 193°
2026-04-19 04:36 39.81369 -111.91007 19222 ft 172 kts 194°
2026-04-19 04:37 39.80244 -111.91195 19693 ft 160 kts 196°
2026-04-19 04:37 39.79132 -111.91391 19936 ft 163 kts 196°
2026-04-19 04:37 39.78005 -111.91587 20185 ft 166 kts 196°
2026-04-19 04:37 39.76799 -111.91801 20202 ft 183 kts 195°
2026-04-19 04:38 39.75499 -111.92023 20209 ft 193 kts 195°
2026-04-19 04:38 39.74128 -111.92253 20208 ft 203 kts 194°
2026-04-19 04:38 39.72701 -111.92493 20207 ft 210 kts 194°
2026-04-19 04:38 39.71283 -111.92916 20209 ft 208 kts 210°
2026-04-19 04:39 39.70096 -111.93941 20196 ft 204 kts 229°
2026-04-19 04:39 39.69143 -111.95300 20192 ft 205 kts 233°
2026-04-19 04:39 39.68177 -111.96677 20195 ft 207 kts 232°
2026-04-19 04:39 39.67202 -111.98066 20194 ft 209 kts 233°
2026-04-19 04:40 39.66226 -111.99465 20194 ft 210 kts 233°
2026-04-19 04:40 39.65244 -112.00870 20195 ft 211 kts 233°
2026-04-19 04:40 39.64258 -112.02280 20195 ft 211 kts 233°
2026-04-19 04:40 39.63280 -112.03677 20192 ft 205 kts 233°
2026-04-19 04:41 39.62333 -112.05026 20178 ft 201 kts 233°
2026-04-19 04:41 39.61393 -112.06372 20177 ft 201 kts 233°
2026-04-19 04:41 39.60451 -112.07717 20167 ft 201 kts 233°
2026-04-19 04:41 39.59512 -112.09057 20166 ft 201 kts 233°
2026-04-19 04:42 39.58575 -112.10393 20166 ft 200 kts 233°
2026-04-19 04:42 39.57655 -112.11709 20166 ft 200 kts 233°
2026-04-19 04:42 39.56717 -112.13043 20160 ft 200 kts 233°
2026-04-19 04:42 39.55780 -112.14375 20167 ft 200 kts 233°
2026-04-19 04:43 39.54846 -112.15704 20168 ft 199 kts 233°
2026-04-19 04:43 39.53915 -112.17032 20169 ft 199 kts 233°
2026-04-19 04:43 39.52981 -112.18359 20168 ft 199 kts 233°
2026-04-19 04:43 39.52048 -112.19683 20160 ft 199 kts 233°
2026-04-19 04:44 39.51117 -112.21011 20160 ft 199 kts 233°
2026-04-19 04:44 39.50186 -112.22333 20158 ft 199 kts 233°
2026-04-19 04:44 39.49256 -112.23655 20158 ft 198 kts 233°
2026-04-19 04:44 39.48329 -112.24966 20156 ft 197 kts 233°
2026-04-19 04:45 39.47411 -112.26272 20154 ft 196 kts 233°
2026-04-19 04:45 39.46495 -112.27570 20155 ft 195 kts 233°
2026-04-19 04:45 39.45583 -112.28863 20156 ft 194 kts 233°
2026-04-19 04:45 39.44675 -112.30150 20157 ft 193 kts 233°
2026-04-19 04:46 39.43769 -112.31433 20157 ft 193 kts 233°
2026-04-19 04:46 39.42863 -112.32717 20146 ft 193 kts 233°
2026-04-19 04:46 39.41957 -112.33998 20147 ft 193 kts 233°
2026-04-19 04:46 39.41053 -112.35277 20146 ft 193 kts 233°
2026-04-19 04:47 39.40150 -112.36554 20148 ft 192 kts 233°
2026-04-19 04:47 39.39248 -112.37829 20146 ft 192 kts 233°
2026-04-19 04:47 39.38345 -112.39105 20147 ft 192 kts 233°
2026-04-19 04:47 39.37444 -112.40377 20145 ft 192 kts 233°
2026-04-19 04:48 39.36545 -112.41647 20143 ft 191 kts 233°
2026-04-19 04:48 39.35647 -112.42915 20147 ft 191 kts 233°
2026-04-19 04:48 39.34748 -112.44182 20148 ft 191 kts 233°
2026-04-19 04:48 39.33850 -112.45448 20148 ft 191 kts 233°
2026-04-19 04:49 39.32954 -112.46712 20129 ft 191 kts 233°
2026-04-19 04:49 39.32059 -112.47972 20141 ft 190 kts 233°
2026-04-19 04:49 39.31163 -112.49234 20140 ft 191 kts 233°
2026-04-19 04:49 39.30377 -112.50583 20141 ft 185 kts 249°
2026-04-19 04:50 39.30047 -112.52160 20148 ft 181 kts 265°
2026-04-19 04:50 39.29879 -112.53775 20150 ft 182 kts 264°
2026-04-19 04:50 39.29700 -112.55388 20151 ft 181 kts 264°
2026-04-19 04:50 39.29526 -112.56979 20151 ft 181 kts 264°
2026-04-19 04:51 39.29350 -112.58590 20155 ft 181 kts 264°
2026-04-19 04:51 39.29175 -112.60202 20149 ft 181 kts 264°
2026-04-19 04:51 39.28999 -112.61811 20149 ft 181 kts 264°
2026-04-19 04:51 39.28822 -112.63422 20149 ft 181 kts 264°
2026-04-19 04:52 39.28645 -112.65033 20146 ft 181 kts 264°
2026-04-19 04:52 39.28468 -112.66644 20146 ft 181 kts 264°
2026-04-19 04:52 39.28291 -112.68254 20146 ft 181 kts 264°
2026-04-19 04:52 39.28114 -112.69865 20146 ft 181 kts 264°
2026-04-19 04:53 39.27936 -112.71475 20146 ft 181 kts 264°
2026-04-19 04:53 39.27758 -112.73088 20149 ft 182 kts 264°
2026-04-19 04:53 39.27580 -112.74702 20149 ft 182 kts 264°
2026-04-19 04:53 39.27401 -112.76316 20149 ft 182 kts 264°
2026-04-19 04:54 39.27222 -112.77931 20150 ft 182 kts 264°
2026-04-19 04:54 39.27043 -112.79546 20144 ft 182 kts 264°
2026-04-19 04:54 39.26863 -112.81161 20144 ft 182 kts 264°
2026-04-19 04:54 39.26683 -112.82778 20144 ft 182 kts 264°
2026-04-19 04:55 39.26503 -112.84393 20146 ft 182 kts 264°
2026-04-19 04:55 39.26323 -112.86007 20146 ft 182 kts 264°
2026-04-19 04:55 39.26143 -112.87624 20146 ft 182 kts 264°
2026-04-19 04:55 39.25962 -112.89240 20146 ft 182 kts 264°
2026-04-19 04:56 39.25781 -112.90856 20144 ft 182 kts 264°
2026-04-19 04:56 39.25600 -112.92472 20144 ft 182 kts 264°
2026-04-19 04:56 39.25418 -112.94087 20144 ft 182 kts 264°
2026-04-19 04:56 39.25236 -112.95705 20144 ft 182 kts 264°
2026-04-19 04:57 39.25054 -112.97320 20144 ft 182 kts 264°
2026-04-19 04:57 39.24872 -112.98936 20149 ft 182 kts 264°
2026-04-19 04:57 39.24690 -113.00551 20149 ft 182 kts 264°
2026-04-19 04:57 39.24507 -113.02167 20149 ft 182 kts 264°
2026-04-19 04:58 39.24325 -113.03782 20146 ft 182 kts 264°
2026-04-19 04:58 39.24142 -113.05396 20145 ft 182 kts 264°
2026-04-19 04:58 39.23958 -113.07010 20145 ft 182 kts 264°
2026-04-19 04:58 39.23775 -113.08623 20145 ft 182 kts 264°
2026-04-19 04:59 39.23592 -113.10237 20145 ft 182 kts 264°
2026-04-19 04:59 39.23407 -113.11856 20144 ft 183 kts 264°
2026-04-19 04:59 39.23222 -113.13478 20144 ft 183 kts 264°
2026-04-19 04:59 39.23037 -113.15104 20144 ft 183 kts 264°
2026-04-19 05:00 39.22851 -113.16732 20144 ft 183 kts 264°
2026-04-19 05:00 39.22665 -113.18359 20145 ft 183 kts 264°
2026-04-19 05:00 39.22478 -113.19986 20145 ft 183 kts 264°
2026-04-19 05:00 39.22294 -113.21592 20145 ft 183 kts 264°
2026-04-19 05:01 39.22107 -113.23218 20143 ft 183 kts 264°
2026-04-19 05:01 39.21920 -113.24844 20154 ft 183 kts 264°
2026-04-19 05:01 39.21732 -113.26471 20154 ft 184 kts 264°
2026-04-19 05:01 39.21545 -113.28099 20154 ft 184 kts 264°
2026-04-19 05:02 39.21357 -113.29726 20153 ft 183 kts 264°
2026-04-19 05:02 39.21169 -113.31352 20155 ft 183 kts 264°
2026-04-19 05:02 39.20980 -113.32979 20153 ft 183 kts 264°
2026-04-19 05:02 39.20792 -113.34604 20153 ft 183 kts 264°
2026-04-19 05:03 39.20604 -113.36230 20155 ft 184 kts 264°
2026-04-19 05:03 39.20413 -113.37865 20158 ft 184 kts 263°
2026-04-19 05:03 39.20223 -113.39496 20158 ft 184 kts 263°
2026-04-19 05:03 39.20033 -113.41126 20162 ft 185 kts 264°
2026-04-19 05:04 39.19843 -113.42768 20163 ft 186 kts 263°
2026-04-19 05:04 39.19649 -113.44417 20161 ft 187 kts 263°
2026-04-19 05:04 39.19456 -113.46075 20160 ft 187 kts 263°
2026-04-19 05:04 39.19262 -113.47733 20161 ft 187 kts 263°
2026-04-19 05:05 39.19067 -113.49391 20150 ft 187 kts 263°
2026-04-19 05:05 39.18873 -113.51046 20149 ft 187 kts 263°
2026-04-19 05:05 39.18679 -113.52697 20150 ft 186 kts 263°
2026-04-19 05:05 39.18485 -113.54345 20149 ft 186 kts 263°
2026-04-19 05:06 39.18291 -113.55991 20151 ft 186 kts 263°
2026-04-19 05:06 39.18097 -113.57633 20151 ft 185 kts 263°
2026-04-19 05:06 39.17903 -113.59276 20150 ft 185 kts 263°
2026-04-19 05:06 39.17709 -113.60917 20150 ft 185 kts 263°
2026-04-19 05:07 39.17515 -113.62554 20142 ft 185 kts 263°
2026-04-19 05:07 39.17321 -113.64183 20148 ft 184 kts 264°
2026-04-19 05:07 39.17129 -113.65816 20146 ft 185 kts 263°
2026-04-19 05:07 39.16935 -113.67448 20146 ft 184 kts 263°
2026-04-19 05:08 39.16740 -113.69073 20155 ft 183 kts 263°
2026-04-19 05:08 39.16353 -113.72336 20154 ft 185 kts 263°
2026-04-19 05:08 39.16159 -113.73954 20154 ft 185 kts 263°
2026-04-19 05:09 39.15963 -113.75595 20138 ft 186 kts 263°
2026-04-19 05:09 39.15766 -113.77239 20138 ft 186 kts 263°
2026-04-19 05:09 39.15568 -113.78887 20138 ft 187 kts 263°
2026-04-19 05:09 39.15370 -113.80539 20137 ft 187 kts 263°
2026-04-19 05:10 39.15172 -113.82190 20136 ft 187 kts 263°
2026-04-19 05:10 39.14972 -113.83848 20139 ft 187 kts 263°
2026-04-19 05:10 39.14772 -113.85509 20139 ft 188 kts 263°
2026-04-19 05:10 39.14572 -113.87170 20138 ft 188 kts 263°
2026-04-19 05:11 39.14371 -113.88828 20148 ft 188 kts 263°
2026-04-19 05:11 39.14170 -113.90494 20149 ft 188 kts 263°
2026-04-19 05:11 39.13969 -113.92160 20150 ft 189 kts 263°
2026-04-19 05:11 39.13763 -113.93851 20150 ft 189 kts 263°
2026-04-19 05:12 39.13561 -113.95521 20146 ft 189 kts 263°
2026-04-19 05:12 39.13360 -113.97169 20146 ft 188 kts 263°
2026-04-19 05:12 39.13158 -113.98835 20146 ft 188 kts 263°
2026-04-19 05:12 39.12955 -114.00500 20145 ft 188 kts 263°
2026-04-19 05:13 39.12752 -114.02164 20139 ft 188 kts 263°
2026-04-19 05:13 39.12549 -114.03827 20138 ft 188 kts 263°
2026-04-19 05:13 39.12346 -114.05489 20144 ft 188 kts 263°
2026-04-19 05:13 39.12143 -114.07150 20142 ft 188 kts 263°
2026-04-19 05:14 39.11939 -114.08813 20140 ft 188 kts 263°
2026-04-19 05:14 39.11735 -114.10476 20140 ft 188 kts 263°
2026-04-19 05:14 39.11530 -114.12141 20141 ft 188 kts 263°
2026-04-19 05:14 39.11325 -114.13806 20135 ft 188 kts 263°
2026-04-19 05:15 39.11120 -114.15473 20135 ft 188 kts 263°
2026-04-19 05:15 39.10915 -114.17139 20135 ft 188 kts 263°
2026-04-19 05:15 39.10779 -114.18240 20136 ft 188 kts 263°
2026-04-19 05:15 39.10573 -114.19905 20135 ft 189 kts 263°
2026-04-19 05:16 39.10367 -114.21570 20136 ft 188 kts 263°
2026-04-19 05:16 39.10161 -114.23236 20137 ft 189 kts 263°
2026-04-19 05:16 39.09887 -114.25443 20137 ft 188 kts 263°
2026-04-19 05:16 39.09681 -114.27106 20134 ft 188 kts 263°
2026-04-19 05:17 39.09474 -114.28769 20133 ft 188 kts 263°
2026-04-19 05:17 39.09334 -114.29894 20133 ft 188 kts 263°
2026-04-19 05:17 39.09130 -114.31534 20133 ft 188 kts 263°
2026-04-19 05:17 39.08922 -114.33195 20133 ft 188 kts 263°
2026-04-19 05:18 39.08715 -114.34855 20133 ft 188 kts 263°
2026-04-19 05:18 39.08507 -114.36511 20132 ft 187 kts 263°
2026-04-19 05:18 39.08297 -114.38172 20135 ft 189 kts 263°
2026-04-19 05:18 39.08092 -114.39839 20133 ft 188 kts 262°
2026-04-19 05:19 39.07882 -114.41507 20128 ft 189 kts 262°
2026-04-19 05:19 39.07673 -114.43178 20125 ft 189 kts 262°
2026-04-19 05:19 39.07462 -114.44849 20125 ft 189 kts 262°
2026-04-19 05:19 39.07252 -114.46516 20125 ft 189 kts 262°
2026-04-19 05:20 39.07042 -114.48178 20123 ft 188 kts 262°
2026-04-19 05:20 39.06833 -114.49837 20124 ft 188 kts 262°
2026-04-19 05:20 39.06623 -114.51493 20113 ft 187 kts 262°
2026-04-19 05:20 39.06414 -114.53146 20112 ft 187 kts 262°
2026-04-19 05:21 39.06205 -114.54799 20111 ft 187 kts 262°
2026-04-19 05:21 39.05996 -114.56449 20108 ft 187 kts 262°
2026-04-19 05:21 39.05786 -114.58095 20108 ft 186 kts 262°
2026-04-19 05:21 39.05578 -114.59734 20114 ft 185 kts 262°
2026-04-19 05:22 39.05370 -114.61371 20114 ft 186 kts 262°
2026-04-19 05:22 39.05161 -114.63012 20114 ft 186 kts 262°
2026-04-19 05:22 39.04951 -114.64656 20108 ft 186 kts 262°
2026-04-19 05:22 39.04741 -114.66300 20107 ft 186 kts 262°
2026-04-19 05:23 39.04529 -114.67948 20113 ft 187 kts 262°
2026-04-19 05:23 39.04319 -114.69604 20125 ft 188 kts 262°
2026-04-19 05:23 39.04106 -114.71264 20126 ft 188 kts 262°
2026-04-19 05:23 39.03893 -114.72921 20127 ft 188 kts 262°
2026-04-19 05:24 39.03680 -114.74582 20130 ft 188 kts 262°
2026-04-19 05:24 39.03466 -114.76243 20126 ft 188 kts 262°
2026-04-19 05:24 39.03252 -114.77901 20119 ft 188 kts 262°
2026-04-19 05:24 39.03039 -114.79559 20119 ft 188 kts 262°
2026-04-19 05:25 39.02825 -114.81216 20119 ft 188 kts 262°
2026-04-19 05:25 39.02611 -114.82870 20121 ft 187 kts 262°
2026-04-19 05:25 39.02400 -114.84501 20121 ft 187 kts 262°
2026-04-19 05:25 39.02183 -114.86175 20120 ft 187 kts 262°
2026-04-19 05:26 39.01973 -114.87797 20117 ft 186 kts 262°
2026-04-19 05:26 39.01760 -114.89438 20114 ft 186 kts 262°
2026-04-19 05:26 39.01546 -114.91082 20120 ft 187 kts 263°
2026-04-19 05:26 39.01331 -114.92730 20117 ft 187 kts 262°
2026-04-19 05:27 39.01117 -114.94380 20121 ft 187 kts 263°
2026-04-19 05:27 39.00902 -114.96035 20119 ft 188 kts 262°
2026-04-19 05:27 39.00685 -114.97694 20119 ft 188 kts 262°
2026-04-19 05:27 39.00468 -114.99353 20117 ft 188 kts 262°
2026-04-19 05:28 39.00251 -115.01010 20112 ft 188 kts 262°
2026-04-19 05:28 39.00034 -115.02668 20103 ft 188 kts 262°
2026-04-19 05:28 38.99816 -115.04326 20101 ft 188 kts 262°
2026-04-19 05:28 38.99599 -115.05981 20100 ft 188 kts 262°
2026-04-19 05:29 38.99382 -115.07635 20097 ft 188 kts 262°
2026-04-19 05:29 38.99164 -115.09288 20096 ft 187 kts 262°
2026-04-19 05:29 38.98947 -115.10939 20097 ft 188 kts 262°
2026-04-19 05:29 38.98729 -115.12592 20095 ft 187 kts 262°
2026-04-19 05:30 38.98511 -115.14242 20095 ft 187 kts 262°
2026-04-19 05:30 38.98292 -115.15892 20095 ft 187 kts 262°
2026-04-19 05:30 38.98075 -115.17539 20094 ft 187 kts 262°
2026-04-19 05:30 38.97857 -115.19188 20095 ft 187 kts 262°
2026-04-19 05:31 38.97637 -115.20840 20095 ft 188 kts 262°
2026-04-19 05:31 38.97418 -115.22490 20096 ft 187 kts 262°
2026-04-19 05:31 38.97199 -115.24142 20096 ft 187 kts 262°
2026-04-19 05:31 38.96979 -115.25791 20096 ft 187 kts 262°
2026-04-19 05:32 38.96759 -115.27441 20093 ft 187 kts 262°
2026-04-19 05:32 38.96540 -115.29089 20093 ft 187 kts 262°
2026-04-19 05:32 38.96319 -115.30736 20093 ft 187 kts 262°
2026-04-19 05:32 38.96099 -115.32381 20092 ft 187 kts 262°
2026-04-19 05:33 38.95879 -115.34026 20089 ft 188 kts 262°
2026-04-19 05:33 38.95658 -115.35683 20089 ft 189 kts 262°
2026-04-19 05:33 38.95435 -115.37346 20088 ft 189 kts 262°
2026-04-19 05:33 38.95211 -115.39010 20089 ft 189 kts 261°
2026-04-19 05:34 38.94988 -115.40671 20086 ft 189 kts 262°
2026-04-19 05:34 38.94763 -115.42344 20090 ft 192 kts 262°
2026-04-19 05:34 38.94538 -115.44006 20092 ft 191 kts 261°
2026-04-19 05:34 38.94310 -115.45690 20090 ft 191 kts 261°
2026-04-19 05:35 38.94085 -115.47375 20091 ft 192 kts 261°
2026-04-19 05:35 38.93857 -115.49060 20089 ft 191 kts 261°
2026-04-19 05:35 38.93629 -115.50742 20089 ft 191 kts 261°
2026-04-19 05:35 38.93401 -115.52422 20092 ft 191 kts 261°
2026-04-19 05:36 38.93173 -115.54099 20089 ft 191 kts 261°
2026-04-19 05:36 38.92946 -115.55777 20090 ft 191 kts 261°
2026-04-19 05:36 38.92718 -115.57451 20090 ft 190 kts 261°
2026-04-19 05:36 38.92490 -115.59123 20089 ft 190 kts 261°
2026-04-19 05:37 38.92263 -115.60793 20090 ft 190 kts 261°
2026-04-19 05:37 38.92035 -115.62462 20085 ft 189 kts 261°
2026-04-19 05:37 38.91809 -115.64123 20072 ft 189 kts 261°
2026-04-19 05:37 38.91582 -115.65776 20083 ft 188 kts 261°
2026-04-19 05:38 38.91356 -115.67432 20085 ft 188 kts 261°
2026-04-19 05:38 38.91129 -115.69092 20082 ft 189 kts 261°
2026-04-19 05:38 38.90900 -115.70753 20082 ft 189 kts 261°
2026-04-19 05:38 38.90672 -115.72419 20082 ft 189 kts 261°
2026-04-19 05:39 38.90443 -115.74082 20081 ft 189 kts 261°
2026-04-19 05:39 38.90217 -115.75723 20083 ft 189 kts 261°
2026-04-19 05:39 38.89988 -115.77386 20082 ft 189 kts 261°
2026-04-19 05:39 38.89759 -115.79047 20083 ft 189 kts 261°
2026-04-19 05:40 38.89529 -115.80711 20082 ft 190 kts 261°
2026-04-19 05:40 38.89300 -115.82377 20080 ft 189 kts 261°
2026-04-19 05:40 38.89069 -115.84044 20082 ft 190 kts 261°
2026-04-19 05:40 38.88837 -115.85719 20085 ft 191 kts 261°
2026-04-19 05:41 38.88604 -115.87398 20087 ft 191 kts 261°
2026-04-19 05:41 38.88371 -115.89074 20087 ft 191 kts 261°
2026-04-19 05:41 38.88138 -115.90750 20087 ft 191 kts 261°
2026-04-19 05:41 38.87906 -115.92425 20087 ft 190 kts 261°
2026-04-19 05:42 38.87672 -115.94097 20084 ft 190 kts 261°
2026-04-19 05:42 38.87440 -115.95770 20082 ft 190 kts 261°
2026-04-19 05:42 38.87206 -115.97438 20079 ft 190 kts 260°
2026-04-19 05:42 38.86973 -115.99109 20079 ft 190 kts 260°
2026-04-19 05:43 38.86740 -116.00778 20085 ft 190 kts 260°
2026-04-19 05:43 38.86505 -116.02451 20089 ft 191 kts 260°
2026-04-19 05:43 38.86271 -116.04124 20087 ft 191 kts 260°
2026-04-19 05:43 38.86036 -116.05797 20087 ft 190 kts 260°
2026-04-19 05:44 38.85801 -116.07473 20086 ft 190 kts 260°
2026-04-19 05:44 38.85566 -116.09143 20085 ft 190 kts 260°
2026-04-19 05:44 38.85330 -116.10816 20086 ft 191 kts 260°
2026-04-19 05:44 38.85094 -116.12488 20090 ft 190 kts 260°
2026-04-19 05:45 38.84859 -116.14161 20085 ft 190 kts 260°
2026-04-19 05:45 38.84622 -116.15832 20085 ft 191 kts 260°
2026-04-19 05:45 38.84386 -116.17504 20083 ft 190 kts 260°
2026-04-19 05:45 38.84150 -116.19169 20087 ft 190 kts 260°
2026-04-19 05:46 38.83914 -116.20839 20091 ft 190 kts 260°
2026-04-19 05:46 38.83676 -116.22511 20091 ft 191 kts 260°
2026-04-19 05:46 38.83443 -116.24163 20090 ft 191 kts 260°
2026-04-19 05:46 38.83204 -116.25840 20090 ft 191 kts 260°
2026-04-19 05:47 38.82966 -116.27511 20093 ft 190 kts 260°
2026-04-19 05:47 38.82729 -116.29177 20090 ft 190 kts 259°
2026-04-19 05:47 38.82492 -116.30838 20091 ft 189 kts 260°
2026-04-19 05:47 38.82254 -116.32502 20091 ft 190 kts 260°
2026-04-19 05:48 38.82016 -116.34173 20090 ft 191 kts 259°
2026-04-19 05:48 38.81776 -116.35848 20089 ft 191 kts 259°
2026-04-19 05:48 38.81535 -116.37526 20091 ft 191 kts 259°
2026-04-19 05:48 38.81295 -116.39200 20091 ft 191 kts 259°
2026-04-19 05:49 38.81055 -116.40878 20091 ft 191 kts 259°
2026-04-19 05:49 38.80815 -116.42550 20091 ft 191 kts 259°
2026-04-19 05:49 38.80574 -116.44221 20093 ft 191 kts 259°
2026-04-19 05:49 38.80334 -116.45891 20090 ft 191 kts 259°
2026-04-19 05:50 38.80093 -116.47562 20091 ft 190 kts 259°
2026-04-19 05:50 38.79852 -116.49229 20093 ft 190 kts 259°
2026-04-19 05:50 38.79612 -116.50895 20087 ft 190 kts 259°
2026-04-19 05:50 38.79370 -116.52562 20087 ft 190 kts 259°
2026-04-19 05:51 38.79130 -116.54222 20088 ft 189 kts 259°
2026-04-19 05:51 38.78890 -116.55882 20087 ft 190 kts 259°
2026-04-19 05:51 38.78649 -116.57547 20085 ft 190 kts 259°
2026-04-19 05:51 38.78407 -116.59207 20088 ft 189 kts 259°
2026-04-19 05:52 38.78168 -116.60853 20085 ft 191 kts 259°
2026-04-19 05:52 38.77925 -116.62526 20088 ft 191 kts 259°
2026-04-19 05:52 38.77680 -116.64204 20083 ft 192 kts 259°
2026-04-19 05:52 38.77435 -116.65887 20080 ft 192 kts 259°
2026-04-19 05:53 38.77189 -116.67571 20082 ft 193 kts 259°
2026-04-19 05:53 38.76943 -116.69259 20079 ft 192 kts 259°
2026-04-19 05:53 38.76697 -116.70941 20081 ft 192 kts 259°
2026-04-19 05:53 38.76449 -116.72635 20081 ft 193 kts 259°
2026-04-19 05:54 38.76201 -116.74326 20083 ft 193 kts 259°
2026-04-19 05:54 38.75953 -116.76013 20072 ft 192 kts 259°
2026-04-19 05:54 38.75706 -116.77695 20073 ft 192 kts 259°
2026-04-19 05:54 38.75462 -116.79352 20073 ft 192 kts 259°
2026-04-19 05:55 38.75216 -116.81029 20074 ft 191 kts 259°
2026-04-19 05:55 38.74969 -116.82703 20068 ft 191 kts 259°
2026-04-19 05:55 38.74724 -116.84371 20070 ft 191 kts 259°
2026-04-19 05:55 38.74476 -116.86038 20069 ft 190 kts 259°
2026-04-19 05:56 38.74232 -116.87705 20061 ft 191 kts 258°
2026-04-19 05:56 38.73985 -116.89370 20061 ft 190 kts 258°
2026-04-19 05:56 38.73738 -116.91032 20061 ft 190 kts 258°
2026-04-19 05:56 38.73492 -116.92687 20063 ft 188 kts 258°
2026-04-19 05:57 38.73246 -116.94345 20065 ft 190 kts 258°
2026-04-19 05:57 38.72999 -116.96012 20069 ft 191 kts 258°
2026-04-19 05:57 38.72751 -116.97686 20066 ft 192 kts 258°
2026-04-19 05:57 38.72500 -116.99367 20061 ft 192 kts 258°
2026-04-19 05:58 38.72249 -117.01050 20061 ft 192 kts 258°
2026-04-19 05:58 38.71998 -117.02734 20066 ft 192 kts 259°
2026-04-19 05:58 38.71747 -117.04415 20067 ft 192 kts 259°
2026-04-19 05:58 38.71496 -117.06097 20066 ft 192 kts 259°
2026-04-19 05:59 38.71244 -117.07778 20071 ft 192 kts 259°
2026-04-19 05:59 38.70995 -117.09445 20067 ft 192 kts 258°
2026-04-19 05:59 38.70742 -117.11129 20067 ft 192 kts 259°
2026-04-19 05:59 38.70490 -117.12812 20062 ft 193 kts 258°
2026-04-19 06:00 38.70237 -117.14494 20061 ft 192 kts 258°
2026-04-19 06:00 38.69984 -117.16175 20058 ft 192 kts 258°
2026-04-19 06:00 38.69732 -117.17852 20059 ft 192 kts 258°
2026-04-19 06:00 38.69480 -117.19525 20057 ft 191 kts 258°
2026-04-19 06:01 38.69227 -117.21197 20062 ft 191 kts 258°
2026-04-19 06:01 38.68976 -117.22862 20064 ft 190 kts 258°
2026-04-19 06:01 38.68724 -117.24530 20056 ft 192 kts 258°
2026-04-19 06:01 38.68470 -117.26204 20057 ft 191 kts 258°
2026-04-19 06:02 38.68218 -117.27877 20055 ft 192 kts 258°
2026-04-19 06:02 38.67963 -117.29555 20054 ft 192 kts 258°
2026-04-19 06:02 38.67708 -117.31231 20057 ft 192 kts 258°
2026-04-19 06:02 38.67457 -117.32887 20060 ft 192 kts 258°
2026-04-19 06:03 38.67202 -117.34562 20055 ft 191 kts 258°
2026-04-19 06:03 38.66945 -117.36247 20044 ft 190 kts 258°
2026-04-19 06:03 38.66696 -117.37885 20043 ft 190 kts 258°
2026-04-19 06:03 38.66442 -117.39550 20045 ft 191 kts 258°
2026-04-19 06:04 38.66187 -117.41219 20048 ft 191 kts 258°
2026-04-19 06:04 38.65932 -117.42887 20048 ft 191 kts 258°
2026-04-19 06:04 38.65676 -117.44559 20049 ft 192 kts 258°
2026-04-19 06:04 38.65506 -117.45669 20049 ft 192 kts 258°
2026-04-19 06:05 38.65249 -117.47348 20049 ft 192 kts 258°
2026-04-19 06:05 38.64992 -117.49029 20039 ft 193 kts 257°
2026-04-19 06:05 38.64734 -117.50709 20038 ft 193 kts 257°
2026-04-19 06:05 38.64475 -117.52391 20041 ft 192 kts 257°
2026-04-19 06:06 38.64217 -117.54064 20042 ft 192 kts 257°
2026-04-19 06:06 38.63959 -117.55743 20040 ft 193 kts 257°
2026-04-19 06:06 38.63700 -117.57424 20042 ft 193 kts 257°
2026-04-19 06:06 38.63440 -117.59106 20041 ft 193 kts 257°
2026-04-19 06:07 38.63180 -117.60794 20030 ft 193 kts 257°
2026-04-19 06:07 38.62921 -117.62463 20031 ft 193 kts 257°
2026-04-19 06:07 38.62660 -117.64151 20029 ft 193 kts 257°
2026-04-19 06:07 38.62399 -117.65837 20030 ft 193 kts 257°
2026-04-19 06:08 38.62138 -117.67522 20030 ft 193 kts 257°
2026-04-19 06:08 38.61877 -117.69203 20030 ft 192 kts 257°
2026-04-19 06:08 38.61616 -117.70881 20028 ft 193 kts 257°
2026-04-19 06:08 38.61355 -117.72558 20012 ft 192 kts 257°
2026-04-19 06:09 38.61094 -117.74231 20014 ft 192 kts 257°
2026-04-19 06:09 38.60833 -117.75907 20009 ft 192 kts 257°
2026-04-19 06:09 38.60572 -117.77581 20009 ft 192 kts 257°
2026-04-19 06:09 38.60311 -117.79251 20008 ft 192 kts 257°
2026-04-19 06:10 38.60049 -117.80925 20008 ft 192 kts 257°
2026-04-19 06:10 38.59788 -117.82596 20010 ft 191 kts 257°
2026-04-19 06:10 38.59529 -117.84247 19991 ft 192 kts 257°
2026-04-19 06:10 38.59268 -117.85915 19990 ft 192 kts 257°
2026-04-19 06:11 38.59005 -117.87589 19992 ft 192 kts 257°
2026-04-19 06:11 38.58743 -117.89262 19988 ft 191 kts 257°
2026-04-19 06:11 38.58480 -117.90931 19988 ft 192 kts 257°
2026-04-19 06:12 38.57951 -117.94291 19989 ft 193 kts 257°
2026-04-19 06:12 38.57686 -117.95971 19994 ft 193 kts 257°
2026-04-19 06:12 38.57421 -117.97646 19998 ft 192 kts 257°
2026-04-19 06:12 38.57158 -117.99317 19997 ft 191 kts 257°
2026-04-19 06:13 38.56892 -118.00990 19995 ft 192 kts 257°
2026-04-19 06:13 38.56627 -118.02666 19992 ft 192 kts 257°
2026-04-19 06:13 38.56238 -118.04285 19996 ft 191 kts 247°
2026-04-19 06:13 38.55744 -118.05861 19993 ft 191 kts 248°
2026-04-19 06:14 38.55259 -118.07448 19977 ft 192 kts 247°
2026-04-19 06:14 38.54776 -118.09038 19977 ft 192 kts 247°
2026-04-19 06:14 38.54291 -118.10630 19977 ft 192 kts 247°
2026-04-19 06:14 38.53805 -118.12225 19980 ft 193 kts 247°
2026-04-19 06:15 38.53322 -118.13805 19979 ft 193 kts 247°
2026-04-19 06:15 38.52832 -118.15408 19979 ft 193 kts 247°
2026-04-19 06:15 38.52344 -118.17007 19978 ft 193 kts 247°
2026-04-19 06:15 38.51856 -118.18602 19978 ft 193 kts 247°
2026-04-19 06:16 38.51367 -118.20198 19967 ft 192 kts 247°
2026-04-19 06:16 38.50880 -118.21789 19966 ft 192 kts 247°
2026-04-19 06:16 38.50393 -118.23378 19966 ft 192 kts 247°
2026-04-19 06:16 38.49912 -118.24947 19963 ft 192 kts 247°
2026-04-19 06:17 38.49427 -118.26529 19964 ft 191 kts 247°
2026-04-19 06:17 38.48940 -118.28115 19966 ft 191 kts 247°
2026-04-19 06:17 38.48456 -118.29692 19966 ft 191 kts 247°
2026-04-19 06:17 38.47970 -118.31272 19950 ft 191 kts 247°
2026-04-19 06:18 38.47484 -118.32854 19951 ft 191 kts 247°
2026-04-19 06:18 38.46999 -118.34432 19952 ft 191 kts 247°
2026-04-19 06:18 38.46513 -118.36012 19952 ft 192 kts 247°
2026-04-19 06:18 38.46024 -118.37600 19949 ft 193 kts 246°
2026-04-19 06:19 38.45530 -118.39199 19953 ft 194 kts 246°
2026-04-19 06:19 38.45037 -118.40799 19952 ft 194 kts 246°
2026-04-19 06:19 38.44543 -118.42399 19950 ft 194 kts 246°
2026-04-19 06:19 38.44049 -118.44001 19941 ft 194 kts 246°
2026-04-19 06:20 38.43555 -118.45602 19943 ft 194 kts 246°
2026-04-19 06:20 38.43059 -118.47204 19943 ft 194 kts 246°
2026-04-19 06:20 38.42564 -118.48809 19945 ft 195 kts 246°
2026-04-19 06:20 38.42065 -118.50419 19943 ft 195 kts 246°
2026-04-19 06:21 38.41568 -118.52024 19947 ft 195 kts 246°
2026-04-19 06:21 38.41070 -118.53631 19944 ft 195 kts 246°
2026-04-19 06:21 38.40572 -118.55238 19943 ft 195 kts 246°
2026-04-19 06:21 38.40076 -118.56839 19941 ft 194 kts 246°
2026-04-19 06:22 38.39580 -118.58440 19941 ft 194 kts 246°
2026-04-19 06:22 38.39084 -118.60035 19940 ft 193 kts 246°
2026-04-19 06:22 38.38588 -118.61627 19941 ft 193 kts 246°
2026-04-19 06:22 38.38095 -118.63216 19936 ft 192 kts 246°
2026-04-19 06:23 38.37603 -118.64801 19935 ft 192 kts 246°
2026-04-19 06:23 38.37110 -118.66384 19936 ft 192 kts 246°
2026-04-19 06:23 38.36617 -118.67970 19947 ft 193 kts 245°
2026-04-19 06:23 38.36118 -118.69571 19946 ft 194 kts 245°
2026-04-19 06:24 38.35625 -118.71150 19948 ft 195 kts 245°
2026-04-19 06:24 38.35125 -118.72756 19947 ft 195 kts 245°
2026-04-19 06:24 38.34624 -118.74359 19946 ft 195 kts 246°
2026-04-19 06:24 38.34121 -118.75969 19946 ft 195 kts 245°
2026-04-19 06:25 38.33619 -118.77576 19946 ft 195 kts 245°
2026-04-19 06:25 38.33117 -118.79184 19982 ft 195 kts 246°
2026-04-19 06:25 38.32617 -118.80784 19978 ft 194 kts 246°
2026-04-19 06:25 38.32116 -118.82382 19974 ft 193 kts 245°
2026-04-19 06:26 38.31618 -118.83972 19970 ft 193 kts 245°
2026-04-19 06:26 38.31120 -118.85564 19967 ft 194 kts 245°
2026-04-19 06:26 38.30619 -118.87160 19963 ft 194 kts 245°
2026-04-19 06:26 38.30118 -118.88757 19961 ft 194 kts 245°
2026-04-19 06:27 38.29622 -118.90338 19967 ft 194 kts 245°
2026-04-19 06:27 38.29121 -118.91935 19964 ft 194 kts 245°
2026-04-19 06:27 38.28620 -118.93526 19959 ft 194 kts 246°
2026-04-19 06:27 38.28125 -118.95105 19954 ft 191 kts 245°
2026-04-19 06:28 38.27629 -118.96680 19961 ft 191 kts 245°
2026-04-19 06:28 38.27134 -118.98249 19962 ft 191 kts 245°
2026-04-19 06:28 38.26640 -118.99821 19961 ft 191 kts 245°
2026-04-19 06:28 38.26145 -119.01390 19961 ft 191 kts 245°
2026-04-19 06:29 38.25650 -119.02963 19971 ft 192 kts 245°
2026-04-19 06:29 38.25152 -119.04540 19973 ft 192 kts 245°
2026-04-19 06:29 38.24655 -119.06115 19975 ft 192 kts 245°
2026-04-19 06:29 38.24158 -119.07687 19974 ft 192 kts 245°
2026-04-19 06:30 38.23661 -119.09262 19975 ft 192 kts 245°
2026-04-19 06:30 38.23163 -119.10836 19975 ft 192 kts 245°
2026-04-19 06:30 38.22670 -119.12395 19976 ft 192 kts 245°
2026-04-19 06:30 38.22170 -119.13974 19996 ft 193 kts 245°
2026-04-19 06:31 38.21669 -119.15559 19997 ft 193 kts 245°
2026-04-19 06:31 38.21166 -119.17144 19993 ft 192 kts 245°
2026-04-19 06:31 38.20665 -119.18723 19992 ft 192 kts 245°
2026-04-19 06:31 38.20165 -119.20302 19995 ft 192 kts 245°
2026-04-19 06:32 38.19664 -119.21879 19991 ft 193 kts 245°
2026-04-19 06:32 38.19168 -119.23439 19990 ft 192 kts 245°
2026-04-19 06:32 38.18669 -119.25014 20025 ft 192 kts 244°
2026-04-19 06:32 38.18171 -119.26579 20021 ft 190 kts 245°
2026-04-19 06:33 38.17677 -119.28129 20021 ft 189 kts 244°
2026-04-19 06:33 38.17182 -119.29686 20018 ft 190 kts 245°
2026-04-19 06:33 38.16685 -119.31246 20019 ft 191 kts 244°
2026-04-19 06:33 38.16188 -119.32805 20018 ft 190 kts 245°
2026-04-19 06:34 38.15691 -119.34364 20019 ft 190 kts 244°
2026-04-19 06:34 38.15193 -119.35925 20025 ft 191 kts 244°
2026-04-19 06:34 38.14694 -119.37488 20053 ft 191 kts 244°
2026-04-19 06:34 38.14196 -119.39049 20047 ft 190 kts 244°
2026-04-19 06:35 38.13691 -119.40627 20054 ft 195 kts 244°
2026-04-19 06:35 38.13179 -119.42229 20052 ft 195 kts 244°
2026-04-19 06:35 38.12672 -119.43820 20052 ft 194 kts 245°
2026-04-19 06:35 38.12164 -119.45407 20048 ft 193 kts 244°
2026-04-19 06:36 38.11658 -119.46984 20048 ft 192 kts 244°
2026-04-19 06:36 38.11154 -119.48558 20067 ft 192 kts 244°
2026-04-19 06:36 38.10657 -119.50110 20066 ft 193 kts 244°
2026-04-19 06:36 38.10151 -119.51684 20067 ft 192 kts 244°
2026-04-19 06:37 38.09646 -119.53256 20066 ft 192 kts 244°
2026-04-19 06:37 38.09141 -119.54831 20071 ft 193 kts 244°
2026-04-19 06:37 38.08631 -119.56417 20068 ft 194 kts 244°
2026-04-19 06:37 38.08123 -119.57998 20069 ft 194 kts 244°
2026-04-19 06:38 38.07614 -119.59581 20067 ft 194 kts 244°
2026-04-19 06:38 38.07104 -119.61167 20073 ft 194 kts 244°
2026-04-19 06:38 38.06592 -119.62757 20072 ft 195 kts 244°
2026-04-19 06:38 38.06079 -119.64350 20072 ft 194 kts 244°
2026-04-19 06:39 38.05566 -119.65937 20074 ft 194 kts 244°
2026-04-19 06:39 38.05062 -119.67499 20073 ft 194 kts 244°
2026-04-19 06:39 38.04552 -119.69083 20075 ft 195 kts 244°
2026-04-19 06:39 38.04037 -119.70674 20076 ft 195 kts 244°
2026-04-19 06:40 38.03521 -119.72273 20069 ft 195 kts 244°
2026-04-19 06:40 38.03008 -119.73862 20069 ft 195 kts 244°
2026-04-19 06:40 38.02495 -119.75448 20070 ft 194 kts 244°
2026-04-19 06:40 38.01981 -119.77036 20069 ft 194 kts 244°
2026-04-19 06:41 38.01468 -119.78620 20073 ft 194 kts 244°
2026-04-19 06:41 38.00955 -119.80202 20072 ft 194 kts 244°
2026-04-19 06:41 38.00443 -119.81784 20071 ft 194 kts 244°
2026-04-19 06:41 37.99929 -119.83368 20056 ft 195 kts 244°
2026-04-19 06:42 37.99417 -119.84942 20053 ft 196 kts 244°
2026-04-19 06:42 37.98899 -119.86537 20055 ft 196 kts 244°
2026-04-19 06:42 37.98382 -119.88133 20054 ft 196 kts 244°
2026-04-19 06:42 37.97866 -119.89722 20053 ft 195 kts 244°
2026-04-19 06:43 37.97349 -119.91308 20060 ft 195 kts 244°
2026-04-19 06:43 37.96831 -119.92899 20060 ft 195 kts 244°
2026-04-19 06:43 37.96314 -119.94490 20040 ft 195 kts 244°
2026-04-19 06:43 37.95794 -119.96083 20040 ft 195 kts 244°
2026-04-19 06:44 37.95275 -119.97675 20038 ft 195 kts 243°
2026-04-19 06:44 37.94757 -119.99264 20038 ft 195 kts 244°
2026-04-19 06:44 37.94240 -120.00851 20036 ft 195 kts 243°
2026-04-19 06:44 37.93722 -120.02438 20037 ft 195 kts 243°
2026-04-19 06:45 37.93203 -120.04024 20037 ft 195 kts 243°
2026-04-19 06:45 37.92685 -120.05610 20038 ft 195 kts 243°
2026-04-19 06:45 37.92164 -120.07202 20018 ft 195 kts 243°
2026-04-19 06:45 37.91645 -120.08786 20019 ft 195 kts 243°
2026-04-19 06:46 37.91131 -120.10355 20021 ft 195 kts 243°
2026-04-19 06:46 37.90611 -120.11944 20020 ft 196 kts 243°
2026-04-19 06:46 37.90089 -120.13537 20022 ft 196 kts 243°
2026-04-19 06:46 37.89568 -120.15128 20024 ft 196 kts 243°
2026-04-19 06:47 37.89044 -120.16724 20014 ft 196 kts 243°
2026-04-19 06:47 37.88530 -120.18294 19998 ft 191 kts 243°
2026-04-19 06:47 37.88018 -120.19851 20000 ft 192 kts 243°
2026-04-19 06:47 37.87503 -120.21414 20001 ft 193 kts 243°
2026-04-19 06:48 37.86985 -120.22985 20003 ft 193 kts 243°
2026-04-19 06:48 37.86467 -120.24562 19999 ft 194 kts 243°
2026-04-19 06:48 37.85950 -120.26135 19997 ft 194 kts 243°
2026-04-19 06:48 37.85437 -120.27691 19998 ft 194 kts 243°
2026-04-19 06:49 37.84912 -120.29286 19984 ft 194 kts 243°
2026-04-19 06:49 37.84400 -120.30839 19986 ft 194 kts 243°
2026-04-19 06:49 37.83877 -120.32419 19985 ft 194 kts 243°
2026-04-19 06:49 37.83356 -120.34000 19985 ft 195 kts 243°
2026-04-19 06:50 37.82834 -120.35583 19986 ft 195 kts 243°
2026-04-19 06:50 37.82311 -120.37165 19984 ft 195 kts 243°
2026-04-19 06:50 37.81789 -120.38745 19983 ft 195 kts 243°
2026-04-19 06:50 37.81264 -120.40328 19982 ft 195 kts 243°
2026-04-19 06:51 37.80740 -120.41913 19979 ft 195 kts 243°
2026-04-19 06:51 37.80216 -120.43494 19978 ft 195 kts 243°
2026-04-19 06:51 37.79693 -120.45075 19979 ft 195 kts 243°
2026-04-19 06:51 37.79170 -120.46653 19978 ft 194 kts 243°
2026-04-19 06:52 37.78654 -120.48206 19973 ft 195 kts 243°
2026-04-19 06:52 37.78131 -120.49783 19974 ft 194 kts 243°
2026-04-19 06:52 37.77608 -120.51358 19965 ft 194 kts 243°
2026-04-19 06:52 37.77085 -120.52933 19965 ft 194 kts 243°
2026-04-19 06:53 37.76560 -120.54511 19967 ft 195 kts 243°
2026-04-19 06:53 37.76036 -120.56086 19967 ft 194 kts 243°
2026-04-19 06:53 37.75512 -120.57660 19967 ft 194 kts 243°
2026-04-19 06:53 37.74988 -120.59236 19967 ft 194 kts 243°
2026-04-19 06:54 37.74470 -120.60788 19967 ft 194 kts 243°
2026-04-19 06:54 37.73946 -120.62359 19967 ft 194 kts 243°
2026-04-19 06:54 37.73422 -120.63931 19961 ft 194 kts 243°
2026-04-19 06:54 37.72897 -120.65502 19961 ft 194 kts 243°
2026-04-19 06:55 37.72551 -120.66541 19961 ft 194 kts 243°
2026-04-19 06:55 37.72027 -120.68111 19959 ft 194 kts 243°
2026-04-19 06:55 37.71502 -120.69682 19959 ft 194 kts 243°
2026-04-19 06:55 37.70977 -120.71252 19959 ft 194 kts 243°
2026-04-19 06:56 37.70452 -120.72820 19959 ft 194 kts 243°
2026-04-19 06:56 37.69927 -120.74388 19958 ft 194 kts 242°
2026-04-19 06:56 37.69401 -120.75959 19958 ft 194 kts 243°
2026-04-19 06:56 37.68877 -120.77524 19958 ft 194 kts 242°
2026-04-19 06:57 37.68351 -120.79092 19958 ft 194 kts 242°
2026-04-19 06:57 37.67832 -120.80640 19958 ft 194 kts 242°
2026-04-19 06:57 37.67306 -120.82206 19958 ft 194 kts 242°
2026-04-19 06:57 37.66781 -120.83773 19958 ft 194 kts 242°
2026-04-19 06:58 37.66254 -120.85338 19958 ft 194 kts 242°
2026-04-19 06:58 37.65727 -120.86905 19959 ft 194 kts 242°
2026-04-19 06:58 37.65201 -120.88471 19958 ft 194 kts 242°
2026-04-19 06:58 37.64674 -120.90036 19958 ft 194 kts 242°
2026-04-19 06:59 37.64148 -120.91600 19958 ft 194 kts 242°
2026-04-19 06:59 37.63621 -120.93164 19958 ft 194 kts 242°
2026-04-19 06:59 37.63093 -120.94729 19958 ft 194 kts 242°
2026-04-19 06:59 37.62479 -120.96222 19966 ft 190 kts 229°
2026-04-19 07:00 37.61649 -120.97516 19960 ft 190 kts 228°
2026-04-19 07:00 37.60833 -120.98829 19960 ft 190 kts 228°
2026-04-19 07:00 37.60027 -121.00125 19960 ft 190 kts 228°
2026-04-19 07:00 37.59206 -121.01438 19961 ft 190 kts 228°
2026-04-19 07:01 37.58386 -121.02751 19961 ft 190 kts 228°
2026-04-19 07:01 37.57565 -121.04063 19962 ft 190 kts 228°
2026-04-19 07:01 37.56744 -121.05374 19962 ft 191 kts 228°
2026-04-19 07:01 37.55923 -121.06686 19962 ft 191 kts 228°
2026-04-19 07:02 37.55110 -121.07983 19962 ft 191 kts 228°
2026-04-19 07:02 37.54288 -121.09296 19963 ft 191 kts 228°
2026-04-19 07:02 37.53466 -121.10606 19963 ft 191 kts 228°
2026-04-19 07:02 37.52645 -121.11917 19963 ft 191 kts 228°
2026-04-19 07:03 37.51823 -121.13227 19963 ft 191 kts 228°
2026-04-19 07:03 37.51002 -121.14536 19962 ft 191 kts 228°
2026-04-19 07:03 37.50180 -121.15846 19962 ft 191 kts 228°
2026-04-19 07:03 37.49357 -121.17156 19962 ft 191 kts 228°
2026-04-19 07:04 37.48533 -121.18466 19963 ft 191 kts 228°
2026-04-19 07:04 37.47710 -121.19777 19968 ft 191 kts 228°
2026-04-19 07:04 37.46886 -121.21088 19966 ft 191 kts 228°
2026-04-19 07:04 37.46073 -121.22378 19967 ft 191 kts 228°
2026-04-19 07:05 37.45247 -121.23692 19971 ft 191 kts 228°
2026-04-19 07:05 37.44423 -121.25001 19974 ft 191 kts 227°
2026-04-19 07:05 37.43599 -121.26309 19975 ft 191 kts 227°
2026-04-19 07:05 37.42776 -121.27617 19975 ft 191 kts 228°
2026-04-19 07:06 37.41949 -121.28927 19974 ft 191 kts 227°
2026-04-19 07:06 37.41125 -121.30236 19982 ft 191 kts 228°
2026-04-19 07:06 37.40298 -121.31545 19983 ft 191 kts 228°
2026-04-19 07:06 37.39468 -121.32861 19984 ft 192 kts 227°
2026-04-19 07:07 37.38639 -121.34175 19982 ft 192 kts 227°
2026-04-19 07:07 37.37808 -121.35492 19981 ft 192 kts 227°
2026-04-19 07:07 37.36976 -121.36808 19981 ft 192 kts 227°
2026-04-19 07:07 37.36159 -121.38102 19981 ft 191 kts 227°
2026-04-19 07:08 37.35332 -121.39408 19980 ft 191 kts 227°
2026-04-19 07:08 37.34505 -121.40714 19979 ft 191 kts 227°
2026-04-19 07:08 37.33677 -121.42024 19985 ft 192 kts 227°
2026-04-19 07:08 37.32848 -121.43334 19983 ft 192 kts 227°
2026-04-19 07:09 37.32019 -121.44644 19986 ft 191 kts 227°
2026-04-19 07:09 37.31309 -121.46064 19990 ft 196 kts 245°
2026-04-19 07:09 37.31101 -121.47777 19993 ft 204 kts 267°
2026-04-19 07:09 37.31280 -121.49558 19991 ft 206 kts 272°
2026-04-19 07:10 37.31468 -121.51342 19993 ft 206 kts 271°
2026-04-19 07:10 37.31651 -121.53131 19990 ft 207 kts 271°
2026-04-19 07:10 37.31837 -121.54929 19991 ft 207 kts 271°
2026-04-19 07:10 37.32021 -121.56701 19990 ft 207 kts 271°
2026-04-19 07:11 37.32205 -121.58495 19989 ft 207 kts 271°
2026-04-19 07:11 37.32389 -121.60292 19988 ft 207 kts 271°
2026-04-19 07:11 37.32573 -121.62085 19989 ft 207 kts 271°
2026-04-19 07:11 37.32756 -121.63880 19989 ft 207 kts 271°
2026-04-19 07:12 37.32940 -121.65676 19990 ft 208 kts 271°
2026-04-19 07:12 37.33123 -121.67476 19992 ft 208 kts 271°
2026-04-19 07:12 37.33308 -121.69279 19990 ft 208 kts 271°
2026-04-19 07:12 37.33491 -121.71084 19992 ft 208 kts 271°
2026-04-19 07:13 37.33674 -121.72891 19991 ft 208 kts 271°
2026-04-19 07:13 37.33855 -121.74672 19989 ft 208 kts 271°
2026-04-19 07:13 37.34038 -121.76480 19991 ft 209 kts 271°
2026-04-19 07:13 37.34221 -121.78292 19990 ft 209 kts 271°
2026-04-19 07:14 37.34404 -121.80103 20001 ft 209 kts 271°
2026-04-19 07:14 37.34587 -121.81916 19988 ft 209 kts 271°
2026-04-19 07:14 37.34769 -121.83726 19988 ft 208 kts 271°
2026-04-19 07:14 37.34950 -121.85531 19988 ft 208 kts 271°
2026-04-19 07:15 37.35131 -121.87336 19987 ft 208 kts 271°
2026-04-19 07:15 37.35312 -121.89138 19978 ft 208 kts 271°
2026-04-19 07:15 37.35671 -121.92741 19977 ft 207 kts 271°
2026-04-19 07:16 37.35851 -121.94539 19977 ft 207 kts 271°
2026-04-19 07:16 37.36030 -121.96342 19977 ft 207 kts 271°
2026-04-19 07:16 37.36209 -121.98141 19984 ft 207 kts 271°
2026-04-19 07:16 37.36384 -121.99914 19984 ft 207 kts 271°
2026-04-19 07:17 37.36562 -122.01710 19987 ft 207 kts 271°
2026-04-19 07:17 37.36740 -122.03506 19989 ft 207 kts 271°
2026-04-19 07:17 37.36917 -122.05303 19989 ft 207 kts 271°
2026-04-19 07:17 37.37094 -122.07099 19989 ft 207 kts 271°
2026-04-19 07:18 37.37271 -122.08899 19989 ft 207 kts 270°
2026-04-19 07:18 37.37448 -122.10696 19989 ft 207 kts 270°
2026-04-19 07:18 37.37624 -122.12490 19989 ft 206 kts 270°
2026-04-19 07:18 37.37800 -122.14279 19989 ft 206 kts 270°
2026-04-19 07:19 37.37973 -122.16069 19999 ft 206 kts 270°
2026-04-19 07:19 37.38149 -122.17854 19997 ft 206 kts 270°
2026-04-19 07:19 37.38321 -122.19616 19997 ft 206 kts 270°
2026-04-19 07:19 37.38494 -122.21403 19997 ft 206 kts 270°
2026-04-19 07:20 37.38668 -122.23193 19996 ft 206 kts 270°
2026-04-19 07:20 37.38842 -122.24984 19993 ft 206 kts 270°
2026-04-19 07:20 37.39015 -122.26774 19994 ft 206 kts 270°
2026-04-19 07:20 37.39190 -122.28562 19990 ft 206 kts 270°
2026-04-19 07:21 37.39360 -122.30353 19992 ft 206 kts 270°
2026-04-19 07:21 37.39534 -122.32146 19989 ft 206 kts 270°
2026-04-19 07:21 37.39709 -122.33938 19992 ft 206 kts 270°
2026-04-19 07:21 37.39879 -122.35731 19990 ft 207 kts 270°
2026-04-19 07:22 37.40049 -122.37524 19992 ft 207 kts 270°
2026-04-19 07:22 37.40221 -122.39297 19994 ft 206 kts 270°
2026-04-19 07:22 37.40393 -122.41090 19995 ft 206 kts 270°
2026-04-19 07:22 37.40563 -122.42880 19996 ft 206 kts 270°
2026-04-19 07:23 37.40734 -122.44674 19995 ft 206 kts 270°
2026-04-19 07:23 37.40905 -122.46466 19995 ft 206 kts 270°
2026-04-19 07:23 37.41075 -122.48259 19995 ft 206 kts 270°
2026-04-19 07:23 37.41243 -122.50029 19995 ft 206 kts 270°
2026-04-19 07:24 37.41412 -122.51818 19998 ft 206 kts 270°
2026-04-19 07:24 37.41582 -122.53610 19997 ft 206 kts 270°
2026-04-19 07:24 37.41751 -122.55401 19997 ft 206 kts 270°
2026-04-19 07:24 37.41920 -122.57192 19997 ft 206 kts 270°
2026-04-19 07:25 37.42088 -122.58984 20024 ft 206 kts 270°
2026-04-19 07:25 37.42256 -122.60775 20023 ft 206 kts 270°
2026-04-19 07:25 37.42424 -122.62566 20023 ft 206 kts 270°
2026-04-19 07:25 37.42592 -122.64357 20022 ft 206 kts 270°
2026-04-19 07:26 37.42759 -122.66147 20021 ft 206 kts 270°
2026-04-19 07:26 37.42926 -122.67932 20020 ft 205 kts 270°
2026-04-19 07:26 37.43092 -122.69716 20018 ft 205 kts 270°
2026-04-19 07:26 37.43258 -122.71499 20016 ft 201 kts 270°
2026-04-19 07:27 37.43414 -122.73054 19989 ft 159 kts 268°
2026-04-19 07:27 37.43533 -122.74282 19976 ft 128 kts 265°
2026-04-19 07:27 37.43625 -122.75318 19840 ft 114 kts 264°
2026-04-19 07:27 37.43710 -122.76294 19608 ft 109 kts 264°
2026-04-19 07:28 37.43791 -122.77194 19432 ft 99 kts 263°
2026-04-19 07:28 37.43865 -122.78041 19198 ft 95 kts 263°
2026-04-19 07:28 37.43938 -122.78847 18960 ft 91 kts 263°
2026-04-19 07:28 37.44012 -122.79648 18693 ft 92 kts 264°
2026-04-19 07:29 37.44085 -122.80441 18430 ft 92 kts 265°
2026-04-19 07:29 37.44157 -122.81232 18153 ft 91 kts 265°
2026-04-19 07:29 37.44230 -122.82022 17847 ft 91 kts 265°
2026-04-19 07:29 37.44303 -122.82810 17551 ft 91 kts 265°
2026-04-19 07:30 37.44376 -122.83597 17269 ft 90 kts 265°
2026-04-19 07:30 37.44449 -122.84381 16984 ft 90 kts 265°
2026-04-19 07:30 37.44519 -122.85163 16701 ft 90 kts 266°
2026-04-19 07:30 37.44590 -122.85945 16421 ft 90 kts 266°
2026-04-19 07:31 37.44662 -122.86726 16140 ft 90 kts 266°
2026-04-19 07:31 37.44735 -122.87509 15874 ft 90 kts 266°